Location: Carella
(45.8167°N, 9.2667°E)
Time: 23:22:04
(UTC+00:00)

NOSS 3-3 (C) - Pass Details

Date: 30 March 2020
Orbit: 836 x 1376 km, 63.4° (Epoch: 05 May)

Event Time Altitude Azimuth Distance (km) Brightness Sun altitude
Rises 19:40:29 0° 201° (SSW) 3,412 6.8 -19.2°
Reaches altitude 10° 19:42:53 10° 197° (SSW) 2,515 6.0 -19.6°
Maximum altitude 19:48:32 56° 120° (ESE) 1,104 3.9 -20.5°
Drops below altitude 10° 19:54:52 10° 45° (NE) 2,816 6.3 -21.4°
Sets 19:57:41 0° 41° (NE) 3,856 7.0 -21.8°
